Temp_Advection
nan nan nan nan nan nan nan nan nan nan nan nan nan nan nan nan nan nan nan nan nan nan
nan -2 -2 -1 0 0 0 -0 -0 -0 -0 -0 -0 -0 -0 -0 0 1 0 0 0 nan
nan -2 -1 -1 -0 -0 -0 -0 -0 0 -0 -1 -1 -0 -0 -0 -0 0 0 0 -0 nan
nan -2 -1 -0 0 -0 0 0 -0 -0 -0 -1 -1 -1 -0 -0 0 0 0 -0 -0 nan
nan -1 -0 0 0 -1 -0 1 1 -0 -1 -1 -0 -0 -0 -1 -1 -0 0 0 0 nan
nan -0 -0 -0 0 0 -0 -0 -0 0 -0 -1 0 -0 -0 -0 -0 -0 -0 -0 -0 nan
nan -0 -0 -0 -0 -0 -0 0 -0 -1 0 -0 -0 -1 -1 -1 -0 -0 0 -0 0 nan
nan -0 -0 -0 -1 -1 -1 -0 0 -0 0 1 0 -0 -0 -0 -1 -1 -0 -0 0 nan
nan -0 -0 -1 -1 -1 -1 -1 -1 -1 -0 1 1 -0 -1 -0 -0 -0 -1 -1 -0 nan
nan -0 -0 -0 -0 -0 -1 -1 -1 -1 -1 -1 0 0 -0 -0 -0 -1 0 -0 -2 nan
nan -0 -0 -0 -0 -0 -0 -1 -1 -1 -1 -1 -0 -0 -1 -0 -1 -1 -1 -0 -1 nan
nan -1 -1 -0 -0 -0 -0 -0 -1 -1 -1 -1 -0 0 -0 -0 -0 -0 -1 -0 -0 nan
nan -0 -1 -1 -1 -0 -0 0 -0 -1 -1 -1 -1 -0 0 0 -0 -0 -1 -1 0 nan
nan nan nan nan nan nan nan nan nan nan nan nan nan nan nan nan nan nan nan nan nan nan
Wind_Speed
31 32 31 28 27 24 21 19 19 20 20 22 25 27 26 26 27 22 40 41 48 53
33 32 31 30 28 31 26 23 20 22 22 21 22 27 29 31 26 27 27 20 29 40
35 33 30 27 24 21 20 20 20 23 22 21 23 26 28 30 32 36 33 28 27 35
35 31 25 19 15 14 18 20 20 22 20 24 29 24 25 30 32 33 32 32 33 34
25 18 11 6 11 14 18 18 15 18 22 25 24 25 24 26 32 32 33 35 37 32
4 3 5 7 10 12 15 16 18 20 21 22 24 28 27 28 29 29 33 36 37 36
7 5 7 12 16 18 17 17 17 18 18 18 18 18 21 26 31 30 30 32 32 36
4 5 7 10 12 15 17 18 18 18 19 17 15 13 17 18 24 32 31 29 33 34
9 8 9 13 15 17 20 20 19 18 18 18 16 17 22 21 23 25 27 37 34 29
13 13 15 15 16 19 21 22 21 21 20 18 17 18 21 22 24 25 27 28 36 42
16 16 17 19 20 21 21 22 23 23 22 21 19 19 20 20 24 26 27 28 30 35
16 17 18 19 20 21 23 23 23 23 23 23 22 20 21 24 24 25 27 25 26 31
18 19 18 19 21 21 21 24 23 24 24 23 22 20 21 22 23 25 27 28 28 29
17 18 16 18 21 21 20 24 25 25 24 23 21 20 20 20 23 25 29 30 31 30
Wind_Direction
301 294 288 281 280 278 277 278 277 274 276 278 276 272 271 257 249 248 239 236 230 230
302 291 282 277 269 272 275 279 283 282 279 271 265 272 261 257 251 233 235 245 246 236
300 291 274 275 271 274 278 280 276 275 281 279 270 263 265 265 259 250 249 241 242 243
303 290 282 273 272 276 266 272 274 274 279 276 268 270 268 267 263 257 250 244 246 244
296 297 274 276 279 271 290 291 293 287 275 274 273 266 263 264 261 260 251 243 243 239
8 316 312 305 313 315 312 303 293 288 284 280 274 267 257 253 257 257 258 246 245 241
238 336 335 345 332 329 326 319 311 310 305 304 295 287 278 264 256 253 251 251 248 233
16 325 322 328 330 326 327 321 318 314 311 305 303 303 270 259 256 255 254 248 248 250
347 327 331 332 331 329 330 324 324 321 313 308 308 292 286 282 277 268 264 253 249 239
331 327 322 320 319 321 324 327 326 328 326 315 309 303 303 298 288 279 272 262 253 244
318 316 310 310 315 318 319 319 321 322 326 322 317 312 309 301 290 284 279 276 270 259
322 314 312 312 315 317 316 312 312 314 317 319 315 310 310 307 302 292 286 281 274 260
329 324 320 321 324 325 322 319 313 309 307 312 313 311 308 304 303 301 297 292 281 262
331 330 334 324 323 323 320 317 325 322 317 315 322 318 313 315 310 307 305 298 290 284
Height
1451 1446 1441 1438 1435 1432 1430 1428 1426 1424 1422 1418 1417 1419 1420 1421 1426 1422 1428 1426 1429 1430
1440 1437 1433 1430 1428 1427 1426 1423 1420 1419 1416 1415 1414 1414 1416 1417 1414 1415 1420 1421 1426 1430
1431 1428 1424 1423 1421 1420 1420 1418 1414 1414 1412 1411 1408 1408 1409 1409 1409 1412 1413 1412 1417 1422
1422 1419 1417 1417 1416 1416 1413 1412 1409 1407 1405 1405 1403 1400 1400 1403 1405 1405 1405 1406 1411 1412
1413 1412 1412 1414 1413 1411 1409 1407 1404 1404 1400 1400 1397 1397 1395 1397 1400 1402 1401 1400 1404 1406
1411 1412 1413 1411 1409 1408 1406 1404 1401 1399 1397 1393 1393 1393 1391 1394 1397 1398 1397 1401 1397 1398
1412 1414 1411 1408 1407 1405 1403 1400 1397 1394 1391 1390 1389 1389 1387 1389 1390 1390 1391 1389 1382 1385
1409 1412 1410 1408 1406 1405 1403 1399 1395 1392 1389 1387 1384 1386 1384 1381 1380 1380 1380 1380 1383 1383
1416 1414 1411 1409 1406 1403 1400 1396 1392 1389 1386 1384 1383 1379 1378 1377 1373 1376 1371 1374 1376 1379
1414 1411 1409 1406 1404 1400 1396 1393 1390 1386 1383 1381 1377 1374 1372 1370 1368 1367 1367 1368 1368 1371
1412 1408 1406 1404 1400 1397 1394 1390 1387 1384 1382 1378 1376 1374 1372 1368 1365 1362 1363 1360 1358 1357
1409 1405 1403 1399 1396 1393 1389 1386 1383 1381 1378 1375 1372 1370 1366 1362 1359 1357 1355 1354 1354 1353
1406 1403 1399 1396 1393 1389 1385 1381 1378 1375 1373 1370 1367 1365 1363 1359 1355 1350 1346 1343 1342 1342
1405 1401 1396 1393 1389 1385 1381 1378 1374 1370 1367 1364 1361 1358 1355 1351 1345 1340 1335 1332 1330 1330